TimeCST,TemperatureF,Dew PointF,Humidity,Sea Level PressureIn,VisibilityMPH,Wind Direction,Wind SpeedMPH,Gust SpeedMPH,PrecipitationIn,Events,Conditions,WindDirDegrees,DateUTC
12:34 AM,21.2,17.6,86,30.03,5.0,NNW,9.2,-,N/A,,Mostly Cloudy,340,2013-02-07 06:34:00
12:54 AM,23.0,19.4,86,30.03,7.0,NNW,10.4,-,N/A,,Scattered Clouds,340,2013-02-07 06:54:00
1:14 AM,23.0,19.4,86,30.04,5.0,NNW,11.5,-,N/A,,Scattered Clouds,340,2013-02-07 07:14:00
1:34 AM,23.0,19.4,86,30.04,5.0,North,10.4,-,N/A,,Scattered Clouds,350,2013-02-07 07:34:00
1:53 AM,23.0,19.4,86,30.04,5.0,North,10.4,-,N/A,,Clear,350,2013-02-07 07:53:00
2:14 AM,23.0,19.4,86,30.05,5.0,North,10.4,-,N/A,,Clear,350,2013-02-07 08:14:00
2:33 AM,23.0,19.4,86,30.05,4.0,North,10.4,-,N/A,,Clear,360,2013-02-07 08:33:00
2:54 AM,23.0,19.4,86,30.06,4.0,North,9.2,-,N/A,,Clear,350,2013-02-07 08:54:00
3:14 AM,23.0,19.4,86,30.06,4.0,North,10.4,-,N/A,,Clear,350,2013-02-07 09:14:00
3:54 AM,23.0,21.2,93,30.06,3.0,North,10.4,-,N/A,,Mist,350,2013-02-07 09:54:00
4:14 AM,23.0,21.2,93,30.07,2.5,North,8.1,-,N/A,,Mist,350,2013-02-07 10:14:00
4:33 AM,23.0,21.2,93,30.07,2.5,North,9.2,-,N/A,,Mist,360,2013-02-07 10:33:00
4:54 AM,23.0,21.2,93,30.07,2.0,NNW,9.2,-,N/A,,Mist,340,2013-02-07 10:54:00
5:14 AM,23.0,21.2,93,30.07,2.5,North,9.2,-,N/A,,Mist,350,2013-02-07 11:14:00
5:33 AM,23.0,21.2,93,30.07,3.0,North,10.4,-,N/A,,Mist,350,2013-02-07 11:33:00
5:54 AM,23.0,21.2,93,30.08,2.0,North,11.5,-,N/A,,Mist,350,2013-02-07 11:54:00
6:13 AM,23.0,21.2,93,30.10,2.5,North,12.7,-,N/A,,Mist,350,2013-02-07 12:13:00
6:34 AM,21.2,19.4,93,30.09,5.0,North,12.7,-,N/A,,Clear,360,2013-02-07 12:34:00
6:54 AM,21.2,19.4,93,30.09,5.0,North,11.5,-,N/A,,Scattered Clouds,350,2013-02-07 12:54:00
7:13 AM,21.2,19.4,93,30.10,3.0,North,13.8,-,N/A,,Scattered Clouds,360,2013-02-07 13:13:00
7:34 AM,21.2,19.4,93,30.11,3.0,North,10.4,-,N/A,,Scattered Clouds,360,2013-02-07 13:34:00
7:54 AM,21.2,19.4,93,30.12,2.5,North,11.5,-,N/A,,Scattered Clouds,360,2013-02-07 13:54:00
8:13 AM,21.2,19.4,93,30.12,3.0,North,10.4,-,N/A,,Scattered Clouds,10,2013-02-07 14:13:00
8:34 AM,21.2,19.4,93,30.14,4.0,North,11.5,-,N/A,,Clear,360,2013-02-07 14:34:00
8:54 AM,21.2,19.4,93,30.15,4.0,North,10.4,-,N/A,,Clear,350,2013-02-07 14:54:00
9:13 AM,21.2,19.4,93,30.15,5.0,North,10.4,-,N/A,,Clear,350,2013-02-07 15:13:00
9:34 AM,21.2,19.4,93,30.16,5.0,North,10.4,-,N/A,,Clear,350,2013-02-07 15:34:00
9:54 AM,21.2,19.4,93,30.17,5.0,North,11.5,-,N/A,,Clear,350,2013-02-07 15:54:00
10:13 AM,23.0,19.4,86,30.18,5.0,NNW,10.4,-,N/A,,Clear,340,2013-02-07 16:13:00
10:34 AM,23.0,19.4,86,30.18,5.0,NNW,12.7,-,N/A,,Clear,340,2013-02-07 16:34:00
10:54 AM,23.0,19.4,86,30.18,5.0,North,13.8,-,N/A,,Clear,350,2013-02-07 16:54:00
11:13 AM,23.0,19.4,86,30.19,7.0,North,12.7,-,N/A,,Clear,350,2013-02-07 17:13:00
11:34 AM,23.0,19.4,86,30.18,7.0,North,11.5,-,N/A,,Clear,350,2013-02-07 17:34:00
11:54 AM,23.0,19.4,86,30.18,7.0,North,10.4,-,N/A,,Clear,360,2013-02-07 17:54:00
12:14 PM,24.8,19.4,80,30.18,7.0,North,12.7,-,N/A,,Clear,350,2013-02-07 18:14:00
12:34 PM,24.8,19.4,80,30.18,7.0,North,12.7,-,N/A,,Clear,350,2013-02-07 18:34:00
12:53 PM,24.8,19.4,80,30.18,7.0,NNW,12.7,-,N/A,,Clear,340,2013-02-07 18:53:00
1:14 PM,21.2,19.4,93,30.19,10.0,NNW,17.3,-,N/A,,Scattered Clouds,340,2013-02-07 19:14:00
1:34 PM,23.0,19.4,86,30.18,10.0,NNW,15.0,-,N/A,,Clear,340,2013-02-07 19:34:00
1:53 PM,23.0,19.4,86,30.18,10.0,NNW,15.0,-,N/A,,Clear,340,2013-02-07 19:53:00
2:14 PM,23.0,19.4,86,30.18,10.0,North,15.0,-,N/A,,Scattered Clouds,350,2013-02-07 20:14:00
2:34 PM,23.0,19.4,86,30.18,10.0,NNW,16.1,-,N/A,,Clear,340,2013-02-07 20:34:00
2:53 PM,24.8,19.4,80,30.18,10.0,NNW,13.8,-,N/A,,Scattered Clouds,340,2013-02-07 20:53:00
3:14 PM,24.8,19.4,80,30.18,10.0,North,12.7,-,N/A,,Scattered Clouds,350,2013-02-07 21:14:00
3:34 PM,24.8,21.2,86,30.18,10.0,North,10.4,-,N/A,,Scattered Clouds,350,2013-02-07 21:34:00
3:53 PM,24.8,21.2,86,30.20,10.0,NNW,9.2,-,N/A,,Mostly Cloudy,340,2013-02-07 21:53:00
4:14 PM,24.8,21.2,86,30.21,10.0,NNW,10.4,-,N/A,,Mostly Cloudy,330,2013-02-07 22:14:00
4:33 PM,24.8,19.4,80,30.22,10.0,NW,11.5,-,N/A,,Mostly Cloudy,320,2013-02-07 22:33:00
4:54 PM,24.8,19.4,80,30.22,10.0,NNW,10.4,-,N/A,,Overcast,340,2013-02-07 22:54:00
5:14 PM,24.8,19.4,80,30.22,10.0,North,8.1,-,N/A,,Overcast,350,2013-02-07 23:14:00
5:33 PM,24.8,19.4,80,30.22,10.0,North,9.2,-,N/A,,Overcast,360,2013-02-07 23:33:00
5:54 PM,24.8,19.4,80,30.22,10.0,North,8.1,-,N/A,,Overcast,360,2013-02-07 23:54:00
6:14 PM,24.8,19.4,80,30.24,10.0,North,9.2,-,N/A,,Overcast,360,2013-02-08 00:14:00
6:33 PM,24.8,19.4,80,30.25,10.0,North,8.1,-,N/A,,Overcast,350,2013-02-08 00:33:00
6:54 PM,23.0,19.4,86,30.25,10.0,NNW,5.8,-,N/A,,Overcast,340,2013-02-08 00:54:00
7:14 PM,23.0,19.4,86,30.26,10.0,NNW,8.1,-,N/A,,Overcast,340,2013-02-08 01:14:00
7:33 PM,23.0,19.4,86,30.26,10.0,NNW,8.1,-,N/A,,Overcast,340,2013-02-08 01:33:00
7:54 PM,23.0,19.4,86,30.26,10.0,North,5.8,-,N/A,,Overcast,350,2013-02-08 01:54:00
8:14 PM,23.0,19.4,86,30.27,10.0,NNW,8.1,-,N/A,,Overcast,330,2013-02-08 02:14:00
8:33 PM,21.2,19.4,93,30.27,10.0,NNW,3.5,-,N/A,,Overcast,340,2013-02-08 02:33:00
8:54 PM,21.2,19.4,93,30.27,10.0,NE,3.5,-,N/A,,Overcast,40,2013-02-08 02:54:00
9:14 PM,21.2,17.6,86,30.27,10.0,NNE,4.6,-,N/A,,Overcast,20,2013-02-08 03:14:00
9:33 PM,21.2,17.6,86,30.27,10.0,Calm,Calm,-,N/A,,Overcast,0,2013-02-08 03:33:00
9:54 PM,21.2,17.6,86,30.27,10.0,North,4.6,-,N/A,,Overcast,360,2013-02-08 03:54:00
10:14 PM,21.2,17.6,86,30.28,10.0,Calm,Calm,-,N/A,,Overcast,0,2013-02-08 04:14:00
10:33 PM,21.2,17.6,86,30.28,10.0,NW,3.5,-,N/A,,Overcast,320,2013-02-08 04:33:00
10:54 PM,21.2,17.6,86,30.29,10.0,Calm,Calm,-,N/A,,Overcast,0,2013-02-08 04:54:00
11:14 PM,21.2,17.6,86,30.29,10.0,NNW,3.5,-,N/A,,Overcast,340,2013-02-08 05:14:00
11:33 PM,21.2,17.6,86,30.29,10.0,North,4.6,-,N/A,,Overcast,350,2013-02-08 05:33:00
11:54 PM,21.2,17.6,86,30.29,10.0,Calm,Calm,-,N/A,,Overcast,0,2013-02-08 05:54:00